sat.trackr.live / text

‹ back to catalog

STARLINK-5939

NORAD 56015 · 2023-042AF

PAYLOAD ACTIVE UNKNOWN

§ Identity

Operator
Country
US
Launch date
2023-03-24
Launch site
AFETR
Launch vehicle
Mass (kg)
RCS (m²)

Purposes: comms

External: N2YO · Heavens-Above · Gunter

§ Orbital elements

Epoch: 2026-09-20T09:05:08.568960Z

Period
94.27 min
Inclination
43.0038°
Eccentricity
0.0001244
Mean motion
15.27576287 rev/d
Perigee alt
482.2 km
Apogee alt
483.9 km
Semi-major
6,861.2 km
B*
-2.1908e-6
RAAN
25.4766°
Arg perigee
269.0270°
Mean anomaly
91.0439°
Rev number
19,281

§ Raw data

STARLINK-59391 56015U 23042AF  26263.37857140 -.00000322  00000+0 -21908-5 0  99952 56015  43.0038  25.4766 0001244 269.0270  91.0439 15.27576287192811

JSON: /api/v1/satellites/56015 · /tle

For live sub-satellite position, see the globe view (requires WebGL).

§ Visibility from observer

Set your observer location to see the next 7 days of passes ≥ 10°. The values pass through the URL so the page stays shareable.

No JS? Fill the form by hand. The geolocation button needs JavaScript.